GLOBALSTAR M090

Last updated on Sun Jun 21 2026 00:03:18 GMT+0000 (Coordinated Universal Time)

1 38044U 11080E 26171.44290909 -.00000098 00000+0 30403-4 0 9994 2 38044 52.0138 318.5478 0000773 96.2433 297.3561 12.62269039670129
UTC large
Height (km)
Speed (km/s)
/
Latitude / Longitude
Inclination (degrees)
Orbital Period (minutes)
Azimuth
Elevation
Range (km)
Doppler Factor

Next 0 passes for location: London (51.5072 / 0.1276)

No passes found over London.
GLOBALSTAR M090